This is the latest recevied weather packets stored in our database for station/object IW1CGW-13. If no packets are shown the sender has not sent any weather packets the latest 10 day(s).
| Time | Temp. | Humidity | Pressure | Rain* | Wind** | Luminosity | Snow |
|---|---|---|---|---|---|---|---|
| 1777820911 | 18.89° C | 56% | 1016.8 hPa | - | - | - | - |
| 1777820290 | 18.89° C | 56% | 1016.9 hPa | - | - | - | - |
| 1777819669 | 18.33° C | 56% | 1017.1 hPa | - | - | - | - |
| 1777819049 | 18.89° C | 56% | 1017.1 hPa | - | - | - | - |
| 1777818428 | 18.89° C | 56% | 1017.1 hPa | - | - | - | - |
| 1777817807 | 19.44° C | 55% | 1017.3 hPa | - | - | - | - |
| 1777817186 | 19.44° C | 56% | 1017.4 hPa | - | - | - | - |
| 1777816565 | 18.89° C | 56% | 1017.6 hPa | - | - | - | - |
| 1777815944 | 18.89° C | 57% | 1017.8 hPa | - | - | - | - |
| 1777815323 | 18.33° C | 58% | 1017.7 hPa | - | - | - | - |
| 1777814702 | 18.33° C | 57% | 1017.7 hPa | - | - | - | - |
| 1777814082 | 17.78° C | 58% | 1018 hPa | - | - | - | - |
| 1777813454 | 17.22° C | 58% | 1018.2 hPa | - | - | - | - |
| 1777812833 | 17.78° C | 58% | 1018.2 hPa | - | - | - | - |
| 1777812212 | 17.78° C | 58% | 1018.4 hPa | - | - | - | - |
| 1777811591 | 17.78° C | 58% | 1018.4 hPa | - | - | - | - |
| 1777810970 | 17.78° C | 58% | 1018.5 hPa | - | - | - | - |
| 1777810349 | 17.78° C | 58% | 1018.6 hPa | - | - | - | - |
| 1777809728 | 17.78° C | 58% | 1018.5 hPa | - | - | - | - |
| 1777809106 | 18.33° C | 58% | 1018.6 hPa | - | - | - | - |
| 1777808483 | 18.33° C | 58% | 1018.6 hPa | - | - | - | - |
| 1777807863 | 18.89° C | 58% | 1018.5 hPa | - | - | - | - |
| 1777807242 | 17.78° C | 60% | 1018.6 hPa | - | - | - | - |
| 1777806621 | 17.22° C | 60% | 1018.7 hPa | - | - | - | - |
| 1777806000 | 17.22° C | 59% | 1018.7 hPa | - | - | - | - |
* Rain since midnight (hover to see other rain measurements)
** Current wind speed in m/s (hover to see current wind gust speed)